Location: Unspecified
(0.0000°N, 0.0000°E)
Time: 17:55:06
(UTC+00:00)

Courier 1B Rocket - All Passes

Search period start: 18 January 2020 00:00
Search period end: 28 January 2020 00:00
Orbit: 920 x 1202 km, 28.2° (Epoch: 18 January)

Date Brightness Start Highest point End Pass type
(mag) Time Alt. Az. Time Alt. Az. Time Alt. Az.
18 Jan - 00:42:59 10° WSW 00:48:34 24° SSW 00:54:26 10° SSE night (unlit)
18 Jan - 06:35:45 10° SSE 06:36:22 10° SSE 06:36:58 10° SSE daylight
18 Jan - 08:25:01 10° SSW 08:31:23 28° SSE 08:37:27 10° E daylight
18 Jan - 10:17:54 10° WSW 10:25:21 89° SSE 10:32:15 10° ENE daylight
18 Jan - 12:13:18 10° W 12:19:00 26° NNW 12:24:24 10° NNE daylight
18 Jan - 19:55:19 10° NNW 19:59:47 20° NNE 20:04:24 10° ENE visible
18 Jan - 21:46:53 10° NW 21:53:25 72° NNE 22:00:28 10° ESE night (unlit)
18 Jan - 23:41:02 10° W 23:47:10 34° SSW 23:53:41 10° SE night (unlit)
19 Jan - 01:39:23 10° SW 01:41:52 12° SSW 01:44:24 10° S visible
19 Jan - 07:24:23 10° SSW 07:29:51 20° SSE 07:35:08 10° ESE daylight
19 Jan - 09:16:37 10° SW 09:24:07 61° SSE 09:31:07 10° ENE daylight
19 Jan - 11:11:04 10° W 11:17:48 40° NNW 11:24:06 10° NE daylight
19 Jan - 13:09:52 10° NW 13:11:54 11° NNW 13:13:52 10° N daylight
19 Jan - 18:55:54 10° N 18:58:29 13° NNE 19:01:06 10° NE visible
19 Jan - 20:46:15 10° NW 20:52:20 46° NNE 20:58:50 10° ESE visible
19 Jan - 22:39:29 10° WNW 22:45:53 49° SSW 22:52:46 10° SE night (unlit)
20 Jan - 00:36:01 10° WSW 00:40:11 16° SSW 00:44:30 10° SSE night (unlit)
20 Jan - 06:24:05 10° S 06:28:09 15° SSE 06:32:11 10° SE daylight
20 Jan - 08:15:33 10° SW 08:22:47 42° SSE 08:29:39 10° E daylight
20 Jan - 10:09:12 10° WSW 10:16:37 61° NNW 10:23:30 10° NE daylight
20 Jan - 12:05:57 10° WNW 12:10:28 18° NNW 12:14:50 10° NNE daylight
20 Jan - 19:45:50 10° NNW 19:51:15 30° NNE 19:56:53 10° E visible
20 Jan - 21:38:17 10° WNW 21:44:44 74° SSW 21:51:41 10° SE visible
20 Jan - 23:33:31 10° WSW 23:38:40 22° SSW 23:44:05 10° SSE night (unlit)
21 Jan - 05:24:51 10° S 05:26:20 11° SSE 05:27:49 10° SSE visible
21 Jan - 07:14:42 10° SSW 07:21:20 30° SSE 07:27:45 10° E daylight
21 Jan - 09:07:38 10° WSW 09:15:22 89° NNW 09:22:37 10° ENE daylight
21 Jan - 11:03:07 10° W 11:09:09 27° NNW 11:14:50 10° NNE daylight
21 Jan - 18:45:45 10° NNW 18:50:06 19° NNE 18:54:32 10° ENE visible
21 Jan - 20:37:21 10° NW 20:43:41 73° NNE 20:50:23 10° ESE visible
21 Jan - 22:31:34 10° W 22:37:19 32° SSW 22:43:26 10° SSE night (unlit)
22 Jan - 00:30:33 10° SSW 00:31:57 11° SSW 00:33:24 10° S night (unlit)
22 Jan - 06:14:07 10° SSW 06:19:47 21° SSE 06:25:22 10° ESE daylight
22 Jan - 08:06:21 10° SW 08:14:04 63° SSE 08:21:25 10° ENE daylight
22 Jan - 10:00:51 10° W 10:07:52 40° NNW 10:14:29 10° NE daylight
22 Jan - 11:59:31 10° NW 12:02:05 12° NNW 12:04:36 10° N daylight
22 Jan - 17:46:14 10° N 17:48:49 13° NNE 17:51:24 10° NE daylight
22 Jan - 19:36:41 10° NW 19:42:39 46° NNE 19:48:52 10° ESE visible
22 Jan - 21:30:01 10° W 21:36:07 46° SSW 21:42:37 10° SE visible
22 Jan - 23:26:44 10° SW 23:30:19 15° SSW 23:34:02 10° S night (unlit)
23 Jan - 05:13:53 10° SSW 05:18:07 15° SSE 05:22:20 10° SE visible
23 Jan - 07:05:18 10° SW 07:12:42 44° SSE 07:19:52 10° E daylight
23 Jan - 08:58:58 10° WSW 09:06:35 61° NNW 09:13:48 10° NE daylight
23 Jan - 10:55:43 10° WNW 11:00:36 19° NNW 11:05:17 10° NNE daylight
23 Jan - 18:36:14 10° NNW 18:41:36 30° NNE 18:47:03 10° E visible
23 Jan - 20:28:46 10° WNW 20:35:02 71° SSW 20:41:38 10° SE visible
23 Jan - 22:24:09 10° WSW 22:28:51 21° SSW 22:33:48 10° SSE night (unlit)
24 Jan - 04:14:44 10° S 04:16:18 11° SSE 04:17:53 10° SSE visible
24 Jan - 06:04:30 10° SSW 06:11:14 31° SSE 06:17:53 10° E daylight
24 Jan - 07:57:24 10° WSW 08:05:17 88° NNW 08:12:50 10° ENE daylight
24 Jan - 09:52:54 10° W 09:59:12 28° NNW 10:05:12 10° NNE daylight
24 Jan - 17:36:03 10° NNW 17:40:27 20° NNE 17:44:51 10° ENE daylight
24 Jan - 19:27:48 10° NW 19:34:01 75° NNE 19:40:28 10° ESE visible
24 Jan - 21:22:08 10° W 21:27:34 29° SSW 21:33:17 10° SSE visible
25 Jan - 05:03:59 10° SSW 05:09:41 22° SSE 05:15:25 10° ESE visible
25 Jan - 06:56:09 10° SW 07:03:56 65° SSE 07:11:33 10° ENE daylight
25 Jan - 08:50:37 10° W 08:57:50 41° NNW 09:04:44 10° NE daylight
25 Jan - 10:49:07 10° NW 10:52:11 13° NNW 10:55:12 10° N daylight
25 Jan - 16:36:20 10° N 16:39:09 13° NNE 16:41:57 10° NE daylight
25 Jan - 18:27:03 10° NW 18:33:01 47° NNE 18:39:04 10° ESE visible
25 Jan - 20:20:31 10° W 20:26:26 44° SSW 20:32:36 10° SE visible
25 Jan - 22:17:35 10° SW 22:20:32 13° SSW 22:23:35 10° S visible
26 Jan - 04:03:53 10° S 04:08:02 15° SSE 04:12:16 10° SE visible
26 Jan - 05:55:09 10° SW 06:02:32 45° SSE 06:09:54 10° E daylight
26 Jan - 07:48:46 10° WSW 07:56:29 60° NNW 08:03:57 10° NE daylight
26 Jan - 09:45:28 10° WNW 09:50:38 19° NNW 09:55:37 10° NNE daylight
26 Jan - 17:26:31 10° NNW 17:31:58 31° NNE 17:37:23 10° E daylight
26 Jan - 19:19:13 10° WNW 19:25:23 69° SSW 19:31:44 10° SE visible
26 Jan - 21:14:47 10° WSW 21:19:08 19° SSW 21:23:37 10° SSE visible
27 Jan - 03:05:11 10° S 03:06:18 10° SSE 03:07:25 10° SSE visible
27 Jan - 04:54:26 10° SSW 05:01:06 31° SSE 05:07:51 10° E visible
27 Jan - 06:47:15 10° WSW 06:55:08 86° NNW 07:02:54 10° ENE daylight
27 Jan - 08:42:42 10° W 08:49:08 28° NNW 08:55:24 10° NNE daylight
27 Jan - 16:26:11 10° NNW 16:30:48 21° NNE 16:35:20 10° ENE daylight
27 Jan - 18:18:09 10° NW 18:24:24 77° NNE 18:30:41 10° ESE daylight
27 Jan - 20:12:40 10° W 20:17:54 28° SSW 20:23:17 10° SSE visible
